Cork, Ireland

10:01 PM IST on October 17, 2017 (GMT +0100)
Cork

Weather History for EICK - December, 2011

Change the Weather History Date:

Monday, December 5, 2011

  Actual Average Record
Temperature  
Mean Temperature 38 °F -  
Max Temperature 42 °F 47 °F 53 °F (2001)
Min Temperature 33 °F 38 °F 30 °F (2010)
Degree Days  
Heating Degree Days 28    
Moisture  
Dew Point 34 °F    
Average Humidity 88    
Maximum Humidity 100    
Minimum Humidity 73    
Precipitation  
Precipitation 0.00 in 0.18 in - ()
Sea Level Pressure  
Sea Level Pressure 29.81 in    
Wind  
Wind Speed 11 mph ()    
Max Wind Speed 20 mph    
Max Gust Speed -    
Visibility 6.8 miles    
Events Rain    
Averages and records for this station are not official NWS values.
T = Trace of Precipitation, MM = Missing Value Source: Averaged Metar Reports

Daily Weather History Graph

Daily Weather History Graph

Search for Another Location

Airport or City:

Trip Planner

Search our weather history database for the weather conditions in past years. The results will help you decide how hot, cold, wet, or windy it might be!

Date:

Astronomy

Dec. 05, 2011 Rise Set
Actual Time 8:23 AM GMT 4:24 PM GMT
Civil Twilight 7:43 AM GMT 5:04 PM GMT
Nautical Twilight 7:00 AM GMT 5:47 PM GMT
Astronomical Twilight 6:20 AM GMT 6:28 PM GMT
Moon 1:39 PM GMT (12/5) 3:06 AM GMT (12/5)
Length of Visible Light 9h 20m
Length of Day
8h 01m
Waxing Gibbous, 78% of the Moon is Illuminated
Dec 5
Waxing Gibbous
Dec 10
Full
Dec 18
Last Quarter
Dec 24
New
Jan 1
First Quarter

Hourly Weather History & Observations

Time (GMT) Temp. Windchill Dew Point Humidity Pressure Visibility Wind Dir Wind Speed Gust Speed Precip Events Conditions
12:00 AM 35 °F - 33 °F 92% 29.81 in 16 mi West 13.4 mph - - Rain Light Rain Showers
12:00 AM 35.6 °F 26.6 °F 33.8 °F 93% 29.77 in 6.2 mi West 13.8 mph - N/A   Partly Cloudy
12:30 AM 33.8 °F 25.3 °F 33.8 °F 100% 29.77 in 6.2 mi WSW 11.5 mph - N/A   Partly Cloudy
1:00 AM 35.6 °F 27.5 °F 32.0 °F 87% 29.77 in 6.2 mi West 11.5 mph - N/A   Partly Cloudy
1:30 AM 35.6 °F 25.5 °F 32.0 °F 87% 29.77 in 6.2 mi West 17.3 mph - N/A   Scattered Clouds
2:00 AM 35.6 °F 26.2 °F 33.8 °F 93% 29.77 in 6.2 mi West 15.0 mph - N/A   Partly Cloudy
2:30 AM 35.6 °F 28.0 °F 32.0 °F 87% 29.77 in 6.2 mi West 10.4 mph - N/A   Partly Cloudy
3:00 AM 37.4 °F 28.2 °F 33.8 °F 87% 29.77 in 6.2 mi West 16.1 mph - N/A   Partly Cloudy
3:30 AM 37.4 °F 29.8 °F 33.8 °F 87% 29.80 in 6.2 mi West 11.5 mph - N/A   Partly Cloudy
4:00 AM 35.6 °F 27.1 °F 33.8 °F 93% 29.80 in 4.3 mi West 12.7 mph - N/A Rain Light Rain Showers
4:30 AM 35.6 °F 26.6 °F 33.8 °F 93% 29.80 in 6.2 mi West 13.8 mph - N/A Rain Light Rain Showers
5:00 AM 37.4 °F 30.3 °F 33.8 °F 87% 29.80 in 6.2 mi West 10.4 mph - N/A   Scattered Clouds
5:30 AM 37.4 °F 29.8 °F 35.6 °F 93% 29.80 in 6.2 mi West 11.5 mph - N/A Rain Light Rain Showers
6:00 AM 37 °F - 35 °F 87% 29.83 in 16 mi West 11.2 mph - - Rain Light Rain Showers
6:00 AM 37.4 °F 30.3 °F 33.8 °F 87% 29.80 in 6.2 mi West 10.4 mph - N/A   Partly Cloudy
6:30 AM 37.4 °F 29.3 °F 33.8 °F 87% 29.80 in 6.2 mi West 12.7 mph - N/A   Partly Cloudy
7:00 AM 39.2 °F 31.2 °F 33.8 °F 81% 29.80 in 6.2 mi West 13.8 mph - N/A   Scattered Clouds
7:30 AM 37.4 °F 30.8 °F 33.8 °F 87% 29.80 in 6.2 mi West 9.2 mph - N/A   Partly Cloudy
8:00 AM 37.4 °F 29.8 °F 33.8 °F 87% 29.83 in 6.2 mi West 11.5 mph - N/A   Scattered Clouds
8:30 AM 37.4 °F 30.8 °F 33.8 °F 87% 29.83 in 6.2 mi WSW 9.2 mph - N/A   Mostly Cloudy
9:00 AM 37.4 °F 31.4 °F 35.6 °F 93% 29.83 in 6.2 mi WSW 8.1 mph - N/A   Mostly Cloudy
9:30 AM 37.4 °F 31.4 °F 33.8 °F 87% 29.83 in 6.2 mi WSW 8.1 mph - N/A   Scattered Clouds
10:00 AM 39.2 °F 33.0 °F 35.6 °F 87% 29.83 in 6.2 mi WSW 9.2 mph - N/A   Scattered Clouds
10:30 AM 37.4 °F 31.4 °F 37.4 °F 100% 29.83 in 6.2 mi SW 8.1 mph - N/A   Scattered Clouds
11:00 AM 41.0 °F 33.5 °F 35.6 °F 81% 29.83 in 6.2 mi West 13.8 mph - N/A   Partly Cloudy
11:30 AM 41.0 °F 33.5 °F 35.6 °F 81% 29.83 in 6.2 mi West 13.8 mph - N/A Rain Light Rain Showers
12:00 PM 40 °F - 34 °F 73% 29.87 in 25 mi West 17.9 mph - - Rain Light Rain Showers
12:00 PM 41.0 °F 32.2 °F 33.8 °F 76% 29.83 in 6.2 mi West 18.4 mph - N/A   Partly Cloudy
12:30 PM 41.0 °F 33.5 °F 35.6 °F 81% 29.83 in 6.2 mi West 13.8 mph - N/A   Scattered Clouds
1:00 PM 41.0 °F 31.9 °F 35.6 °F 81% 29.83 in 6.2 mi West 19.6 mph - N/A   Partly Cloudy
1:30 PM 42.8 °F 34.8 °F 35.6 °F 76% 29.83 in 6.2 mi West 17.3 mph - N/A   Partly Cloudy
2:00 PM 42.8 °F 35.4 °F 35.6 °F 76% 29.83 in 6.2 mi West 15.0 mph - N/A   Scattered Clouds
2:30 PM 41.0 °F 34.3 °F 35.6 °F 81% 29.80 in 6.2 mi West 11.5 mph - N/A   Mostly Cloudy
3:00 PM 41.0 °F 32.8 °F 33.8 °F 76% 29.80 in 6.2 mi West 16.1 mph - N/A   Mostly Cloudy
3:30 PM 41.0 °F 32.8 °F 35.6 °F 81% 29.80 in 6.2 mi West 16.1 mph - N/A   Mostly Cloudy
4:00 PM 39.2 °F 32.0 °F 35.6 °F 87% 29.83 in 6.2 mi West 11.5 mph - N/A   Mostly Cloudy
4:30 PM 39.2 °F 33.0 °F 35.6 °F 87% 29.83 in 6.2 mi West 9.2 mph - N/A Rain Light Rain Showers
5:00 PM 37.4 °F 32.1 °F 33.8 °F 87% 29.83 in 6.2 mi WSW 6.9 mph - N/A   Mostly Cloudy
5:30 PM 35.6 °F 28.6 °F 33.8 °F 93% 29.80 in 6.2 mi WSW 9.2 mph - N/A   Mostly Cloudy
6:00 PM 36 °F - 34 °F 91% 29.85 in 19 mi WSW 8.9 mph - -   Partly Cloudy
6:00 PM 35.6 °F 28.6 °F 33.8 °F 93% 29.80 in 6.2 mi WSW 9.2 mph - N/A   Mostly Cloudy
6:30 PM 35.6 °F 29.9 °F 35.6 °F 100% 29.83 in 6.2 mi WSW 6.9 mph - N/A Rain Light Rain Showers
7:00 PM 35.6 °F 29.2 °F 33.8 °F 93% 29.83 in 6.2 mi WSW 8.1 mph - N/A   Partly Cloudy
7:30 PM 35.6 °F 29.2 °F 33.8 °F 93% 29.83 in 6.2 mi West 8.1 mph - N/A   Partly Cloudy
8:00 PM 37.4 °F 31.4 °F 33.8 °F 87% 29.83 in 6.2 mi West 8.1 mph - N/A   Scattered Clouds
8:30 PM 33.8 °F 28.6 °F 32.0 °F 93% 29.83 in 6.2 mi WSW 5.8 mph - N/A Rain Light Rain Showers
9:00 PM 37.4 °F 30.8 °F 35.6 °F 93% 29.83 in 6.2 mi West 9.2 mph - N/A   Scattered Clouds
9:30 PM 37.4 °F 30.3 °F 35.6 °F 93% 29.83 in 6.2 mi West 10.4 mph - N/A   Partly Cloudy
10:00 PM 39.2 °F 32.0 °F 35.6 °F 87% 29.83 in 6.2 mi West 11.5 mph - N/A   Mostly Cloudy
10:30 PM 37.4 °F 30.3 °F 35.6 °F 93% 29.83 in 6.2 mi West 10.4 mph - N/A   Scattered Clouds
11:00 PM 37.4 °F 28.9 °F 35.6 °F 93% 29.83 in 6.2 mi West 13.8 mph - N/A   Partly Cloudy
11:30 PM 39.2 °F 32.0 °F 35.6 °F 87% 29.83 in 6.2 mi West 11.5 mph - N/A   Partly Cloudy